Sitka, AK

3:10 AM AKDT on September 28, 2016 (GMT -0800)
Sitka Rocky Gutierrez

Weather History for PASI - March, 2014

Change the Weather History Date:

Tuesday, March 25, 2014

  Actual Average Record
Temperature  
Mean Temperature 42 °F -  
Max Temperature 46 °F 44 °F 56 °F (1974)
Min Temperature 37 °F 34 °F 11 °F (1967)
Degree Days  
Heating Degree Days 24    
Moisture  
Dew Point 23 °F    
Average Humidity 48    
Maximum Humidity 60    
Minimum Humidity 42    
Precipitation  
Precipitation 0.00 in - - ()
Sea Level Pressure  
Sea Level Pressure 29.59 in    
Wind  
Wind Speed 8 mph (East)    
Max Wind Speed 17 mph    
Max Gust Speed 24 mph    
Visibility 10 miles    
Events      
Averages and records for this station are not official NWS values.
T = Trace of Precipitation, MM = Missing Value Source: NWS Daily Summary

Daily Weather History Graph

Daily Weather History Graph

Search for Another Location

Airport or City:

Trip Planner

Search our weather history database for the weather conditions in past years. The results will help you decide how hot, cold, wet, or windy it might be!

Date:

Astronomy

Mar. 25, 2014 Rise Set
Actual Time 6:49 AM AKDT 7:26 PM AKDT
Civil Twilight 6:10 AM AKDT 8:05 PM AKDT
Nautical Twilight 5:24 AM AKDT 8:51 PM AKDT
Astronomical Twilight 4:34 AM AKDT 9:42 PM AKDT
Moon 4:16 AM AKDT (3/25) 1:09 PM AKDT (3/25)
Length of Visible Light 13h 54m
Length of Day
12h 37m
Waning Crescent, 30% of the Moon is Illuminated
Mar 25
Waning Crescent
Mar 30
New
Apr 7
First Quarter
Apr 14
Full
Apr 21
Last Quarter

Hourly Weather History & Observations

Time (AKDT) Temp. Windchill Dew Point Humidity Pressure Visibility Wind Dir Wind Speed Gust Speed Precip Events Conditions
12:53 AM 41.0 °F 37.1 °F 23.0 °F 49% 29.68 in 10.0 mi Variable 5.8 mph - N/A   Overcast
1:53 AM 39.9 °F 35.1 °F 27.0 °F 60% 29.67 in 10.0 mi West 6.9 mph - N/A   Overcast
2:53 AM 41.0 °F 34.7 °F 24.1 °F 51% 29.66 in 10.0 mi NE 10.4 mph 16.1 mph N/A   Overcast
3:53 AM 42.1 °F 36.1 °F 23.0 °F 47% 29.65 in 10.0 mi East 10.4 mph - N/A   Overcast
4:53 AM 42.1 °F 37.1 °F 23.0 °F 47% 29.64 in 10.0 mi East 8.1 mph - N/A   Overcast
5:53 AM 42.1 °F 40.2 °F 21.9 °F 45% 29.64 in 10.0 mi Variable 3.5 mph - N/A   Overcast
6:53 AM 41.0 °F 33.5 °F 21.0 °F 45% 29.64 in 10.0 mi ENE 13.8 mph 23.0 mph N/A   Overcast
7:53 AM 41.0 °F 33.1 °F 21.9 °F 47% 29.65 in 10.0 mi East 15.0 mph - N/A   Overcast
8:53 AM 39.0 °F 32.3 °F 23.0 °F 53% 29.65 in 10.0 mi East 10.4 mph - N/A   Overcast
9:53 AM 41.0 °F 34.7 °F 23.0 °F 49% 29.64 in 10.0 mi East 10.4 mph - N/A   Overcast
10:53 AM 42.1 °F 37.7 °F 24.1 °F 49% 29.63 in 10.0 mi East 6.9 mph - N/A   Overcast
11:53 AM 42.1 °F 34.9 °F 25.0 °F 51% 29.62 in 10.0 mi ESE 13.8 mph 21.9 mph N/A   Overcast
12:53 PM 44.1 °F 39.0 °F 24.1 °F 45% 29.60 in 10.0 mi East 9.2 mph - N/A   Mostly Cloudy
1:53 PM 45.0 °F 40.6 °F 24.1 °F 44% 29.57 in 10.0 mi East 8.1 mph - N/A   Mostly Cloudy
2:53 PM 46.0 °F 39.0 °F 24.1 °F 42% 29.56 in 10.0 mi East 17.3 mph 24.2 mph N/A   Clear
3:53 PM 45.0 °F - 25.0 °F 46% 29.55 in 10.0 mi Calm Calm - N/A   Clear
4:53 PM 46.0 °F 43.9 °F 25.0 °F 44% 29.53 in 10.0 mi NNW 4.6 mph 18.4 mph N/A   Scattered Clouds
5:53 PM 43.0 °F 37.2 °F 21.9 °F 43% 29.52 in 10.0 mi East 10.4 mph - N/A   Scattered Clouds
6:53 PM 42.1 °F 37.7 °F 21.0 °F 43% 29.51 in 10.0 mi East 6.9 mph - N/A   Clear
7:53 PM 39.9 °F 33.4 °F 19.9 °F 45% 29.52 in 10.0 mi ESE 10.4 mph - N/A   Clear
8:53 PM 39.9 °F 35.1 °F 19.9 °F 45% 29.52 in 10.0 mi East 6.9 mph - N/A   Clear
9:53 PM 37.9 °F 34.4 °F 24.1 °F 57% 29.52 in 10.0 mi ENE 4.6 mph - N/A   Clear
10:53 PM 37.9 °F 35.5 °F 24.1 °F 57% 29.52 in 10.0 mi Variable 3.5 mph - N/A   Clear
11:53 PM 39.9 °F 37.8 °F 21.9 °F 49% 29.53 in 10.0 mi ESE 3.5 mph - N/A   Partly Cloudy